Location: Ferintosh
(52.7647°N, 112.9692°W)
Time: 13:32:24
(UTC+00:00)

Transit 2A - Pass Details

Date: 26 May 2024
Orbit: 592 x 959 km, 66.7° (Epoch: 23 June)

Event Time Altitude Azimuth Distance (km) Brightness Sun altitude
Rises 14:29:34 0° 316° (NW) 3,410 9.0 25.9°
Reaches altitude 10° 14:32:09 10° 308° (NW) 2,524 8.3 26.2°
Maximum altitude 14:37:23 34° 245° (WSW) 1,460 7.3 27.0°
Drops below altitude 10° 14:42:55 10° 183° (S) 2,662 8.9 27.9°
Sets 14:45:43 0° 175° (S) 3,621 9.6 28.3°
